Location: Unspecified
(50.7693°N, 0.0000°E)
Time: 07:27:29
(UTC+00:00)

Transit 2A - Pass Details

Date: 17 August 2020
Orbit: 591 x 967 km, 66.7° (Epoch: 20 September)

Event Time Altitude Azimuth Distance (km) Brightness Sun altitude
Rises 20:12:44 0° 250° (WSW) 3,493 10.0 -8.8°
Reaches altitude 10° 20:15:23 10° 258° (WSW) 2,602 9.4 -9.2°
Maximum altitude 20:21:01 37° 325° (NW) 1,449 8.1 -9.9°
Drops below altitude 10° 20:26:54 10° 31° (NNE) 2,716 8.9 -10.7°
Sets 20:29:44 0° 40° (NE) 3,665 9.5 -11.0°
